Regional Weather Roundup
Issued by NWS Little Rock, AR

Home | Current Version | Previous Version | Text Only | Print | Product List | Glossary On
Versions: 1 2 3 4 5 6 7 8 9 10 11 12 13 14 15 16 17 18 19 20 21 22 23 24 25 26 27 28 29 30 31 32 33 34 35 36 37 38 39 40 41 42 43 44 45 46 47 48 49 50
000
ASUS44 KLZK 161905
RWRLZK

WEATHER ROUNDUP FOR ARKANSAS
NATIONAL WEATHER SERVICE LITTLE ROCK AR
200 PM CDT TUE SEP 16 2014

NOTE: "FAIR" INDICATES FEW OR NO CLOUDS BELOW 12,000 FEET WITH NO
SIGNIFICANT WEATHER AND/OR OBSTRUCTIONS TO VISIBILITY.

ARZ001-003-010-029-162000-
NORTHWEST ARKANSAS

CITY           SKY/WX    TMP DP  RH WIND       PRES   REMARKS
FAYETTEVILLE   CLOUDY    76  70  82 NW8       30.12F
FORT SMITH     MOSUNNY   84  69  60 VRB3      30.08F HX  88
HARRISON       CLOUDY    66  64  93 NE6       30.16F
BENTONVILLE    CLOUDY    70  64  83 NE6       30.15S
ROGERS         CLOUDY    70  65  84 E6        30.15F
SILOAM SPGS    CLOUDY    73  64  73 N6        30.14F
HIGHFILL       CLOUDY    73  67  81 N5        30.13F
SPRINGDALE     CLOUDY    72  68  88 NE5       30.15F FOG
$$

ARZ004-005-016-162000-
NORTH CENTRAL ARKANSAS

CITY           SKY/WX    TMP DP  RH WIND       PRES   REMARKS
BATESVILLE     CLOUDY    75  61  60 CALM      30.12F
FLIPPIN        CLOUDY    66  57  72 N6        30.15F
MTN HOME       CLOUDY    67  60  78 E6        30.15F
$$

ARZ040-041-162000-
WEST CENTRAL ARKANSAS

CITY           SKY/WX    TMP DP  RH WIND       PRES   REMARKS
MENA           MOSUNNY   86  70  58 CALM      30.10F HX  90
MOUNT IDA      MOSUNNY   88  68  51 CALM      30.07F HX  91
$$

ARZ009-017-025-026-028-162000-
NORTHEAST ARKANSAS

CITY           SKY/WX    TMP DP  RH WIND       PRES   REMARKS
CORNING          N/A     68  57  68 NE8       30.15F
JONESBORO      CLOUDY    75  60  59 NE14      30.12F
NEWPORT        CLOUDY    77  63  61 N9        30.13F
WALNUT RIDGE   CLOUDY    70  57  64 NE8       30.14F
BLYTHEVILLE    CLOUDY    75  61  61 NE9       30.12F
NW BLYTHEVILLE PTSUNNY   72  59  64 NE12      30.12
$$

ARZ022-023-033-042-044-162000-
CENTRAL ARKANSAS

CITY           SKY/WX    TMP DP  RH WIND       PRES   REMARKS
LITTLE ROCK    CLOUDY    80  68  66 NE7       30.10F
N LITTLE ROCK  CLOUDY    76  70  81 NE6       30.10F
JACKSONVILLE   CLOUDY    76  69  76 E7        30.10F
SEARCY         CLOUDY    74  67  78 NE7       30.12F
HOT SPRINGS    SUNNY     86  67  52 VRB6      30.07F HX  89
RUSSELLVILLE   PTSUNNY   82  71  69 E6        30.08F HX  86
CLINTON        CLOUDY    73  70  88 E5        30.12F
$$

ARZ036-162000-
EAST ARKANSAS

CITY           SKY/WX    TMP DP  RH WIND       PRES   REMARKS
WEST MEMPHIS   CLOUDY    75  68  78 NE5       30.09F
$$

ARZ050-053-066-070-073-162000-
SOUTHWEST ARKANSAS

CITY           SKY/WX    TMP DP  RH WIND       PRES   REMARKS
ARKADELPHIA    FAIR      84  69  60 VRB3      30.08F HX  87
CAMDEN         MOSUNNY   86  64  48 CALM      30.07F HX  87
TEXARKANA      MOSUNNY   86  68  54 NE6       30.07F HX  89
EL DORADO      PTSUNNY   83  68  60 CALM      30.08F HX  86
DE QUEEN       SUNNY     86  68  54 VRB3      30.05F HX  89
$$

ARZ056-057-069-162000-
SOUTHEAST ARKANSAS

CITY           SKY/WX    TMP DP  RH WIND       PRES   REMARKS
PINE BLUFF     SUNNY     85  68  56 N7        30.07F HX  88
STUTTGART      CLOUDY    79  70  73 N9        30.11S
MONTICELLO     SUNNY     85  65  51 CALM      30.07F HX  86

$$




USA.gov is the U.S. government's official web portal to all federal, state and local government web resources and services.